Regional Weather Roundup
Issued by NWS

Home | Current Version | Previous Version | Text Only | Print | Product List | Glossary Off
Versions: 1 2 3 4 5 6 7 8 9 10 11 12 13 14 15 16 17 18 19 20 21 22 23 24 25 26 27 28 29 30 31 32 33 34 35 36 37 38 39 40 41 42 43 44 45 46 47 48 49 50

000
ASUS43 KMPX 242201
RWRMN
WEATHER ROUNDUP FOR MINNESOTA
NATIONAL WEATHER SERVICE TWIN CITIES/CHANHASSEN MN
400 PM CST TUE JAN 24 2017


NOTE: "FAIR" INDICATES FEW OR NO CLOUDS BELOW 12,000 FEET WITH NO
SIGNIFICANT WEATHER AND/OR OBSTRUCTIONS TO VISIBILITY. N/A MEANS
CURRENT SKY AND/OR WEATHER CONDITIONS ARE NOT AVAILABLE.

MNZ060>063-068>070-242300-
   Twin Cities Metro

CITY           SKY/WX    TMP DP  RH WIND       PRES   REMARKS
TWIN CITIES    CLOUDY    32  26  78 E8        29.81S WCI  25
ST PAUL        CLOUDY    32  27  81 NE9       29.83S WCI  24
CRYSTAL        CLOUDY    32  24  72 E8        29.80S WCI  25
BLAINE         CLOUDY    34  30  86 E7        29.81S WCI  28
LAKEVILLE      CLOUDY    30  28  93 NE6       29.80F WCI  24
EDEN PRAIRIE   CLOUDY    32  26  78 NE7       29.80S WCI  26
SOUTH ST PAUL  CLOUDY    32  28  85 NE3       29.82S
LAKE ELMO      CLOUDY    32  30  93 E5        29.82S WCI  27
$$
MNZ001>005-007-008-013>017-022>024-027-028-242300-
   Northwest Minnesota

CITY           SKY/WX    TMP DP  RH WIND       PRES   REMARKS
BEMIDJI        CLOUDY    26  22  84 W3        29.82S
HALLOCK        CLOUDY    28  27  93 NW5       29.87R WCI  23
ROSEAU         MOCLDY    28  23  80 SW6       29.84S WCI  22
WARROAD        CLOUDY    27  23  86 W6        29.84R WCI  20
THIEF RVR FALL CLOUDY    26  21  81 SW5       29.86R WCI  20
CROOKSTON      CLOUDY    27  23  86 CALM      29.88R
FOSSTON        CLOUDY    25  19  80 W5        29.86R WCI  19
DETROIT LAKES  CLOUDY    28  27  93 CALM      29.85R
MOORHEAD       CLOUDY    27  21  80 NW9       29.88R WCI  17
PARK RAPIDS    CLOUDY    31  22  69 CALM      29.82R
MAHNOMEN       CLOUDY    25  21  84 W3        29.85R
$$
MNZ006-009>011-018-025>026-242300-
   North Central Minnesota

CITY           SKY/WX    TMP DP  RH WIND       PRES   REMARKS
BAUDETTE       CLOUDY    26  20  77 SW3       29.84R
FLAG ISLAND    CLOUDY    27  23  86 SW5       29.83R WCI  21
INTL FALLS     CLOUDY    26  20  77 NW9       29.84R WCI  17
WASKISH        CLOUDY    25  21  86 W3        29.85R
BIG FORK       CLOUDY    30  23  74 CALM      29.82S
LONGVILLE      CLOUDY    28  25  86 CALM      29.83R
GRAND RAPIDS   CLOUDY    29  23  78 CALM      29.86R
CRANE LAKE     CLOUDY    27  23  86 CALM      29.86R
ORR            CLOUDY    28  21  74 CALM      29.81R
COOK           CLOUDY    28  23  80 N5        29.83S WCI  23
WALKER         CLOUDY    29  23  79 CALM      29.82S
$$
MNZ012-019>021-037-242300-
   Northeast Minnesota

CITY           SKY/WX    TMP DP  RH WIND       PRES   REMARKS
DULUTH         CLOUDY    31  25  78 CALM      29.83R
ELY            CLOUDY    28  27  93 CALM      29.82R
HIBBING        CLOUDY    28  24  85 NE6       29.82R WCI  22
EVELETH        CLOUDY    30  25  81 CALM      29.83S
DULUTH HARBOR  CLOUDY    34  27  75 CALM      29.86R
TWO HARBORS    CLOUDY    36  28  75 CALM      29.82R
SILVER BAY     CLOUDY    34  28  80 CALM      29.81R
GRAND MARAIS     N/A     39  29  67 CALM      29.82R
G MARAIS ARPRT CLOUDY    30  25  80 NW7       29.79R WCI  23
$$
MNZ029>031-032-039>041-046>048-054>057-064-242300-
   West Central Minnesota

CITY           SKY/WX    TMP DP  RH WIND       PRES   REMARKS
FERGUS FALLS   CLOUDY    30  27  86 N6        29.85S WCI  24
WHEATON        CLOUDY    30  27  86 N9        29.84S WCI  22
MORRIS         CLOUDY    34  28  80 NE7       29.79S WCI  28
ALEXANDRIA     CLOUDY    31  26  82 NE8       29.79R WCI  23
ELBOW LAKE     CLOUDY    31  27  83 NE5       29.81R HAZE    WCI  26
WADENA         CLOUDY    28  25  86 NE7       29.80F WCI  21
GLENWOOD       CLOUDY    30  27  86 NE8       29.79S WCI  23
APPLETON       CLOUDY    34  28  80 NE8       29.79F WCI  27
MADISON        CLOUDY    34  28  80 NE8       29.79F WCI  27
WILLMAR        CLOUDY    32  28  86 NE7       29.80F WCI  26
$$
MNZ033>034-036-042>043-049>051-058-059-242300-
   Central Minnesota

CITY           SKY/WX    TMP DP  RH WIND       PRES   REMARKS
ST CLOUD       CLOUDY    31  26  82 E3        29.80S
SAUK CENTRE    CLOUDY    31  26  80 NE7       29.79S WCI  24
PAYNESVILLE    CLOUDY    32  29  90 NE6       29.79F WCI  26
AITKIN         CLOUDY    34  25  69 N5        29.81F WCI  30
PINE RIVER     CLOUDY    30  25  80 CALM      29.86F
BRAINERD       CLOUDY    29  24  82 N7        29.81F WCI  22
STAPLES        CLOUDY    30  25  80 N7        29.80F WCI  23
LONG PRAIRIE   MOCLDY    32  27  80 N8        29.78F WCI  25
LITTLE FALLS   CLOUDY    32  25  74 N3        29.79F
LITCHFIELD     CLOUDY    30  27  86 E8        29.80S WCI  23
BUFFALO        CLOUDY    31  26  81 NE7       29.81S WCI  25
MAPLE LAKE     CLOUDY    32  28  86 E8        29.81S WCI  25
HUTCHINSON     CLOUDY    32  28  86 NE10      29.80F WCI  23
$$
MNZ037-044-045-052-053-242300-
   East Central Minnesota

CITY           SKY/WX    TMP DP  RH WIND       PRES   REMARKS
PRINCETON      CLOUDY    34  27  75 N7        29.81F WCI  28
MORA           CLOUDY    32  25  74 CALM      29.84S
CAMBRIDGE      CLOUDY    34  25  69 E5        29.80F WCI  30
RUSH CITY      CLOUDY    32  27  80 NE3       29.83S
MOOSE LAKE     CLOUDY    32  27  80 CALM      29.82S
HINCKLEY       CLOUDY    32  28  86 NE7       29.83R WCI  26
CLOQUET        CLOUDY    30  25  80 CALM      29.83R
MCGREGOR       CLOUDY    30  27  86 CALM      29.84F
$$
MNZ071>073-080-081-089-090-097-098-242300-
   Southwest Minnesota

CITY           SKY/WX    TMP DP  RH WIND       PRES   REMARKS
MONTEVIDEO     CLOUDY    30  28  93 E8        29.80F WCI  23
GRANITE FALLS  CLOUDY    32  28  86 NE8       29.80F WCI  25
CANBY          CLOUDY    31  28  90 NE13      29.78F WCI  21
MARSHALL       CLOUDY    29  27  92 NE12      29.76F WCI  19
REDWOOD FALLS  CLOUDY    31  25  78 E7        29.77F HAZE    WCI  24
OLIVIA         CLOUDY    32  28  86 E7        29.78F FOG     WCI  26
PIPESTONE      CLOUDY    28  28 100 E12G17    29.69S FOG     WCI  18
WINDOM         CLOUDY    30  28  93 NE12      29.72F FOG     WCI  21
WORTHINGTON    CLOUDY    28  28 100 E17       29.69S WCI  16
JACKSON        CLOUDY    28  27  93 E13       29.71S WCI  18
TRACY          CLOUDY    30  29  96 NE12      29.75S WCI  21
SLAYTON        CLOUDY    28  28  99 NE15      29.72S FOG     WCI  16
$$
MNZ065>067-074>077-082>085-091>093-242300-
   South Central Minnesota

CITY           SKY/WX    TMP DP  RH WIND       PRES   REMARKS
MANKATO        PTSUNNY   31  28  89 E10       29.77F FOG     WCI  22
NEW ULM        CLOUDY    30  27  86 E9        29.76F FOG     WCI  22
ST JAMES       CLOUDY    30  28  93 NE12      29.75F FOG     WCI  21
FAIRMONT       CLOUDY    30  28  92 E14       29.72F WCI  19
GLENCOE        CLOUDY    32  29  89 NE7       29.79S WCI  26
OWATONNA       CLOUDY    30  27  86 E9        29.77F WCI  22
WASECA         CLOUDY    32  28  86 NE10      29.77F WCI  24
ALBERT LEA     CLOUDY    30  28  93 E12       29.74F WCI  21
$$
MNZ078>079-086>088-094>096-242300-
   Southeast Minnesota

CITY           SKY/WX    TMP DP  RH WIND       PRES   REMARKS
ROCHESTER      CLOUDY    30  27  88 NE7       29.77F WCI  23
RED WING       CLOUDY    34  27  75 E6        29.80F WCI  29
STANTON        CLOUDY    33  28  81 E7        29.78F WCI  27
DODGE CENTER   CLOUDY    30  28  93 MISG      29.76F FOG
WINONA         CLOUDY    34  30  86 CALM      29.82S
AUSTIN         CLOUDY    30  27  86 NE10      29.75F WCI  21
PRESTON        CLOUDY    32  28  86 E6        29.77F WCI  26
$$
ABBREVIATIONS USED IN REMARKS
   TC - TEMPERATURES IN CELSIUS
  WCI - WIND CHILL INDEX
   HX - HEAT INDEX
  VSB - VISIBILITY
$$



USA.gov is the U.S. government's official web portal to all federal, state and local government web resources and services.